Vertical_Velocity
-1 0 2 -1 -1 -1 0 2 0 1 -3 -5 2 -3 -1 0 0 0 1 -2 1 2 1 -2 -1 0 -2 -2 2 1 1 1 -2 -2 -2 -2 -2 -1 0 1 -1 -1 -0 -1 -1 -0 -1 -0 -0
-2 -2 -0 1 -1 -2 -1 -0 -2 0 0 -2 5 -1 0 -4 -0 2 1 1 -1 2 -2 -2 0 -0 -1 -1 -0 -1 1 0 0 -0 -1 -1 -1 -2 -1 -0 0 0 -1 -1 -0 0 -1 -0 0
-1 -1 -4 -1 -1 0 0 1 2 2 -2 1 -2 1 -2 -2 3 2 1 0 -0 -1 -1 -1 0 -1 -2 0 -1 -0 -0 -0 -2 -1 1 1 1 -1 -2 -1 -0 -1 -1 -1 -1 -1 -0 0 1
-1 -0 -3 -2 1 1 -0 4 -1 -2 -0 -1 3 -1 1 1 -1 -0 2 3 1 2 0 -1 0 -0 -0 -0 -0 0 1 -0 -0 0 0 2 2 1 -1 -1 -1 -1 0 -1 -1 -2 -1 -1 -1
2 2 -3 -1 0 -0 -1 -10 -4 -2 -0 1 1 1 2 2 0 -0 0 1 3 2 -0 -1 1 -0 -1 -1 -0 0 1 -1 -1 -0 -1 1 2 1 -1 -1 0 -0 -1 -1 -2 -3 -2 -2 -2
1 0 0 -1 1 -0 -0 -1 -6 -7 -1 -1 -5 3 1 3 0 -1 -3 0 0 -1 1 -1 1 1 2 -2 0 2 0 1 0 -1 -0 -0 1 2 1 0 -0 -1 -0 0 0 0 -1 -1 -1
-1 -2 2 1 4 2 2 2 6 1 2 -4 -3 5 6 1 1 -4 -3 -2 0 1 1 -1 -1 1 1 1 1 1 -0 0 1 -1 -0 -0 1 -1 -1 -0 1 0 -1 -1 -0 -1 -0 -0 -1
-2 0 -3 -0 2 3 5 6 7 -2 -3 0 2 2 5 1 -2 -4 -2 0 0 -1 -2 -0 -1 -0 1 2 3 2 2 0 -0 -1 -2 -2 -0 -0 -2 -2 -2 -1 1 1 1 0 -0 -0 -1
4 -3 1 -3 -1 2 2 3 -1 1 -1 -4 -5 -0 -0 2 4 -2 -2 -2 -2 0 1 -2 0 0 -1 0 1 2 1 1 1 -0 -1 0 -1 -1 -0 -0 1 -1 -0 -1 -1 0 -0 0 0
-2 -0 -1 4 -0 1 4 -3 -4 1 2 -1 -3 -3 -2 1 4 -2 -2 -4 -0 -2 -0 1 -3 -0 0 0 1 1 1 2 2 1 1 0 -1 -1 -1 0 0 0 -0 -0 -0 -2 -0 0 -0
-5 -5 8 4 1 -3 1 7 4 -2 -1 -3 -4 2 0 1 -1 -2 -3 2 -6 -3 -2 -0 0 -3 -2 1 1 2 1 1 1 2 3 1 2 0 -1 -1 -1 -1 0 0 0 1 1 0 -1
-5 -0 1 6 -2 1 4 1 2 3 2 2 5 -5 -0 -2 5 2 -5 -3 0 -3 -3 1 0 -1 -1 0 -0 -1 -0 -1 -1 1 1 3 2 2 1 -0 -0 -2 -1 1 1 1 1 1 -0
-3 3 -1 -0 3 -5 1 -1 -2 1 9 4 -4 1 0 -0 -2 -1 3 -4 -4 -2 -2 -2 2 1 3 1 -0 0 1 -1 0 -2 -3 -2 1 2 1 -0 -0 -1 -1 -1 -0 0 1 -0 1
-6 -2 3 -1 3 -2 -5 7 -6 2 6 3 3 6 -3 -2 5 -0 -3 1 -2 -2 0 -3 1 2 1 1 2 1 0 1 -1 -1 -0 1 2 0 0 -1 2 -0 -3 -1 -1 -0 1 0 -1
-1 -8 0 0 3 -10 3 -2 -18 13 -5 -1 -2 4 3 3 -1 4 8 1 5 1 -1 2 -3 -4 -2 1 2 -0 -1 -1 -3 0 -1 -0 -1 2 2 1 -0 -1 -1 -1 -2 -1 1 -0 -1
-3 0 -2 2 -5 -4 6 -27 -1 17 8 4 -2 -1 1 6 -0 3 4 3 0 0 -1 3 -3 -2 -2 -3 2 1 0 -2 -2 -5 -2 -2 0 1 -0 2 5 0 0 -1 -1 -0 -1 0 -2
3 -7 -8 -6 1 3 9 -2 6 -4 8 8 -1 -1 -4 -3 -6 -2 1 4 3 1 1 4 3 -1 -0 3 -5 -3 -0 -0 0 -1 -2 1 -0 0 0 1 4 0 1 2 1 -3 -0 -2 -1
-4 -2 -4 -7 2 -2 5 5 -15 -2 -8 6 12 -3 -2 -1 -7 7 2 1 7 8 8 7 2 2 -0 -4 1 -2 -4 -1 -2 1 -0 -1 1 1 -2 0 4 1 0 2 3 1 -2 -2 -2
5 3 -0 2 -1 -4 2 -9 -3 -7 -5 -1 0 9 -0 -3 8 -4 1 1 -3 -4 3 2 3 11 1 -1 -2 4 0 10 3 -1 3 1 1 3 1 -0 1 1 3 2 2 1 2 -0 -2
8 -1 -9 3 1 7 -0 -30 12 -1 -14 -2 -1 1 4 5 -7 4 2 3 -2 -2 4 3 -6 3 3 0 6 -4 7 -1 6 4 -0 -0 -1 2 -2 1 -1 -1 -1 1 0 1 1 3 0
-1 -3 -2 11 -4 12 -10 -47 9 5 -6 -14 5 2 -4 4 -1 4 11 6 8 1 -7 7 1 9 9 8 6 6 -1 -0 -5 -0 6 4 3 1 -1 1 1 1 1 -2 2 -0 0 4 3
3 7 -2 2 4 -4 7 -22 -25 16 -24 -1 11 16 9 2 8 1 8 10 4 5 4 -1 13 3 5 25 6 -3 0 -2 -1 2 10 5 7 6 1 1 0 -0 3 0 4 6 0 -0 3
-0 0 -4 2 6 -8 2 2 -16 -9 -15 3 -0 2 10 6 5 4 6 -1 10 3 -1 5 -4 -3 7 3 6 8 7 7 4 -0 -3 5 5 1 4 -1 -4 1 6 8 2 7 3 1 -1
4 2 4 8 4 -1 25 2 -89 18 -9 -5 -4 -1 -1 6 3 2 -2 2 6 12 8 9 8 4 3 2 3 -2 8 13 3 3 6 1 4 10 3 4 1 -2 3 4 6 -9 5 4 4
3 3 -3 2 3 -10 5 4 -96 -8 4 1 -2 -1 1 -7 -1 -0 -3 -0 5 5 -3 -2 -2 3 2 -3 1 3 2 3 -3 2 8 4 2 9 1 4 6 3 3 15 -4 16 -5 15 4
2 6 -5 -3 -1 -1 0 -9 -49 5 8 -2 3 6 -5 -6 -13 1 5 -6 -1 7 12 3 3 -4 1 -2 -5 -4 1 -2 5 -3 -2 1 -2 14 0 7 2 2 -3 15 12 7 8 2 3
5 0 3 -1 -0 5 -5 -31 -36 -5 -3 10 1 2 5 1 -5 -9 -16 0 -1 -1 1 0 5 3 -0 -5 -0 -8 -3 -4 -2 4 5 3 2 5 12 -1 7 17 -4 -6 7 9 11 5 5
-3 0 1 4 -2 -1 -2 -3 -32 -7 4 4 -3 -3 -4 2 4 -1 -0 -8 -1 -2 3 -0 7 2 4 -6 -4 0 -6 -3 -2 -2 -8 2 5 8 10 4 -0 4 -18 -2 -3 1 4 7 3
-2 -1 1 -1 1 -2 -1 -17 10 13 4 1 2 2 5 -4 -6 -3 -7 -4 -4 -0 -1 1 -1 -3 6 -5 1 0 -0 -3 -0 -3 -2 5 4 6 6 8 -2 6 5 -4 -1 6 4 1 1
-1 0 1 3 -4 3 4 -56 1 2 5 10 1 3 -6 -0 -7 -8 -4 -5 -4 -2 -3 0 -0 9 8 -11 -10 3 3 1 0 -2 8 8 14 -2 2 -2 -3 1 1 2 1 0 26 9 14
Height
3156 3156 3158 3160 3166 3162 3161 3163 3162 3161 3163 3165 3167 3170 3172 3171 3171 3173 3168 3168 3169 3171 3172 3174 3175 3175 3176 3178 3179 3181 3182 3183 3184 3184 3184 3184 3184 3185 3185 3185 3185 3184 3184 3183 3183 3182 3182 3181 3181
3156 3157 3158 3159 3162 3161 3162 3162 3162 3164 3164 3166 3169 3171 3172 3172 3170 3169 3168 3168 3169 3171 3173 3174 3175 3176 3177 3179 3180 3182 3183 3184 3185 3185 3185 3186 3186 3186 3187 3186 3186 3185 3184 3184 3184 3184 3184 3184 3183
3156 3158 3160 3160 3160 3161 3163 3162 3162 3164 3165 3168 3170 3172 3172 3172 3170 3169 3169 3170 3170 3171 3173 3174 3175 3176 3178 3180 3181 3182 3184 3185 3185 3186 3187 3187 3187 3188 3188 3188 3187 3186 3186 3185 3185 3185 3185 3185 3184
3155 3158 3161 3160 3160 3162 3162 3163 3163 3165 3168 3169 3170 3173 3173 3171 3170 3170 3170 3170 3172 3172 3173 3174 3175 3177 3178 3180 3182 3183 3184 3185 3186 3187 3188 3189 3189 3189 3189 3188 3188 3188 3187 3187 3186 3186 3186 3185 3185
3155 3157 3158 3160 3161 3162 3163 3163 3164 3166 3168 3169 3170 3172 3172 3172 3170 3170 3171 3172 3173 3174 3174 3174 3176 3177 3178 3180 3182 3183 3185 3186 3186 3187 3188 3189 3190 3190 3190 3190 3189 3188 3188 3188 3187 3187 3186 3185 3185
3155 3156 3158 3159 3160 3161 3161 3162 3164 3166 3167 3169 3170 3172 3173 3172 3172 3172 3172 3173 3173 3174 3174 3175 3176 3177 3178 3180 3182 3184 3185 3186 3187 3188 3188 3189 3190 3190 3190 3190 3189 3189 3188 3188 3187 3187 3187 3186 3185
3154 3156 3159 3159 3159 3160 3161 3162 3162 3164 3167 3168 3170 3171 3173 3173 3173 3173 3173 3173 3173 3173 3174 3175 3176 3177 3178 3179 3181 3183 3185 3186 3187 3188 3188 3189 3189 3190 3190 3190 3189 3189 3188 3188 3188 3187 3187 3186 3185
3154 3157 3157 3159 3159 3159 3159 3161 3161 3164 3166 3168 3170 3172 3173 3173 3173 3172 3172 3173 3173 3173 3174 3174 3175 3177 3178 3178 3180 3182 3183 3184 3186 3187 3188 3188 3189 3189 3189 3189 3189 3189 3189 3188 3188 3187 3187 3186 3185
3152 3156 3156 3157 3158 3158 3158 3158 3161 3163 3164 3167 3170 3171 3172 3172 3172 3172 3172 3173 3173 3172 3173 3174 3174 3175 3176 3177 3179 3181 3181 3183 3185 3186 3187 3188 3188 3188 3188 3188 3188 3188 3188 3187 3187 3186 3186 3186 3184
3151 3152 3155 3156 3156 3157 3158 3159 3160 3163 3164 3165 3168 3170 3171 3171 3171 3171 3171 3172 3172 3172 3173 3172 3173 3174 3175 3176 3177 3179 3180 3182 3183 3184 3185 3186 3187 3187 3187 3187 3187 3186 3186 3186 3185 3185 3184 3184 3183
3148 3150 3154 3155 3155 3156 3157 3158 3160 3161 3162 3164 3166 3167 3169 3169 3169 3169 3169 3170 3172 3172 3171 3171 3171 3172 3173 3174 3175 3177 3179 3180 3181 3182 3183 3184 3185 3185 3185 3185 3184 3184 3183 3183 3183 3182 3181 3181 3180
3148 3149 3152 3152 3153 3155 3155 3156 3157 3160 3162 3163 3164 3165 3165 3167 3167 3166 3167 3169 3170 3170 3170 3169 3169 3170 3171 3172 3174 3175 3176 3178 3179 3180 3180 3181 3182 3182 3182 3182 3181 3181 3181 3180 3179 3178 3178 3178 3177
3145 3147 3149 3149 3151 3153 3154 3155 3155 3157 3160 3160 3161 3162 3163 3164 3165 3165 3165 3166 3167 3167 3167 3166 3166 3167 3169 3170 3171 3173 3174 3175 3176 3177 3178 3179 3179 3179 3179 3178 3178 3178 3178 3177 3176 3175 3175 3175 3175
3142 3143 3145 3145 3149 3149 3151 3152 3153 3156 3157 3158 3159 3159 3160 3160 3161 3162 3162 3163 3164 3164 3164 3163 3163 3165 3166 3168 3169 3170 3171 3172 3173 3175 3175 3176 3176 3176 3176 3175 3175 3174 3174 3174 3173 3172 3173 3172 3172
3138 3140 3140 3142 3145 3146 3149 3147 3150 3154 3155 3155 3156 3155 3156 3158 3158 3159 3160 3160 3161 3162 3161 3161 3161 3162 3163 3165 3166 3166 3168 3169 3169 3171 3172 3173 3172 3172 3172 3172 3172 3171 3170 3170 3170 3169 3169 3169 3169
3134 3134 3134 3137 3142 3144 3146 3141 3148 3151 3148 3150 3152 3153 3152 3153 3154 3156 3157 3158 3158 3158 3159 3159 3159 3159 3160 3161 3163 3163 3164 3165 3166 3166 3167 3168 3168 3168 3168 3167 3167 3166 3166 3166 3166 3165 3165 3165 3164
3126 3127 3131 3133 3138 3140 3139 3136 3142 3144 3143 3144 3146 3147 3148 3148 3148 3150 3152 3153 3154 3154 3155 3156 3156 3157 3157 3157 3158 3159 3160 3160 3161 3161 3162 3163 3164 3164 3163 3163 3163 3162 3161 3162 3161 3160 3160 3160 3160
3123 3124 3126 3128 3132 3133 3132 3130 3134 3137 3137 3136 3138 3141 3142 3144 3144 3145 3145 3146 3147 3149 3149 3150 3151 3152 3152 3152 3152 3153 3154 3155 3156 3156 3156 3157 3158 3159 3159 3158 3157 3156 3157 3157 3157 3156 3155 3155 3155
3120 3120 3120 3123 3126 3126 3125 3121 3125 3129 3128 3129 3131 3134 3135 3137 3140 3139 3139 3140 3140 3139 3140 3142 3144 3145 3146 3145 3146 3147 3147 3148 3149 3151 3151 3152 3151 3152 3153 3153 3152 3151 3151 3152 3151 3150 3150 3149 3150
3116 3116 3115 3119 3119 3119 3120 3111 3112 3117 3120 3122 3123 3124 3127 3128 3132 3134 3134 3134 3133 3134 3133 3134 3137 3137 3138 3138 3139 3140 3141 3142 3142 3143 3144 3144 3144 3146 3147 3147 3147 3146 3146 3147 3147 3145 3145 3145 3144
3109 3110 3112 3116 3114 3114 3115 3106 3102 3108 3110 3114 3115 3117 3120 3122 3123 3127 3128 3128 3126 3126 3127 3127 3129 3129 3131 3131 3131 3132 3133 3135 3135 3135 3135 3135 3137 3140 3140 3140 3140 3140 3139 3139 3141 3140 3139 3139 3138
3103 3104 3108 3110 3112 3112 3113 3103 3094 3098 3101 3106 3110 3112 3113 3115 3115 3116 3118 3118 3118 3117 3118 3118 3121 3121 3121 3123 3123 3124 3125 3126 3128 3129 3129 3130 3132 3132 3133 3133 3133 3132 3132 3132 3133 3133 3134 3133 3133
3100 3098 3101 3105 3108 3105 3107 3111 3073 3089 3091 3095 3100 3104 3105 3106 3106 3105 3107 3108 3110 3109 3108 3109 3110 3110 3112 3112 3114 3115 3115 3117 3119 3120 3121 3122 3123 3124 3125 3126 3126 3125 3125 3125 3126 3127 3127 3127 3127
3096 3096 3098 3099 3101 3103 3093 3108 3077 3085 3089 3091 3093 3095 3096 3097 3098 3097 3097 3098 3097 3098 3099 3099 3099 3100 3100 3100 3102 3103 3105 3107 3108 3110 3111 3113 3114 3115 3117 3117 3117 3117 3117 3117 3118 3120 3120 3119 3119
3094 3093 3096 3097 3099 3090 3092 3101 3069 3080 3088 3090 3090 3090 3088 3086 3086 3087 3087 3088 3088 3088 3087 3087 3087 3089 3090 3089 3090 3091 3093 3095 3096 3099 3101 3102 3104 3105 3108 3110 3109 3108 3109 3108 3110 3111 3111 3112 3112
3087 3090 3090 3092 3091 3087 3090 3082 3066 3075 3078 3081 3082 3079 3079 3078 3079 3078 3077 3077 3076 3077 3077 3076 3074 3076 3077 3079 3080 3080 3082 3083 3085 3087 3089 3091 3093 3096 3099 3101 3101 3100 3099 3100 3101 3103 3103 3104 3103
3085 3085 3088 3088 3087 3087 3082 3075 3067 3068 3072 3073 3074 3074 3072 3071 3068 3066 3065 3065 3065 3064 3065 3065 3063 3062 3065 3065 3067 3067 3069 3071 3073 3075 3076 3079 3082 3085 3089 3090 3091 3091 3090 3089 3091 3093 3094 3095 3095
3081 3084 3085 3086 3088 3086 3073 3072 3063 3063 3066 3067 3066 3068 3066 3063 3060 3057 3056 3055 3054 3053 3052 3052 3053 3052 3052 3052 3053 3054 3056 3058 3060 3062 3065 3068 3071 3074 3079 3080 3081 3080 3078 3078 3080 3083 3084 3085 3085
3080 3082 3082 3082 3081 3079 3072 3061 3058 3059 3060 3059 3059 3060 3058 3055 3053 3051 3049 3047 3045 3043 3043 3041 3041 3040 3039 3038 3041 3042 3042 3045 3047 3049 3053 3057 3060 3063 3067 3070 3071 3070 3069 3069 3070 3072 3073 3073 3074
3076 3076 3077 3077 3076 3073 3072 3053 3050 3055 3055 3053 3052 3052 3052 3051 3048 3046 3042 3041 3038 3034 3032 3031 3031 3029 3028 3026 3029 3031 3031 3033 3034 3038 3041 3045 3050 3052 3057 3059 3059 3059 3060 3061 3063 3062 3060 3059 3059